Location: Linton
(52.0940°N, 0.2850°E)
Time: 05:47:34
(UTC+00:00)

ISS - Visible Passes

Search period start: 19 January 2018 00:00
Search period end: 29 January 2018 00:00
Orbit: 402 x 407 km, 51.6° (Epoch: 19 January)

Date Brightness Start Highest point End Pass type
(mag) Time Alt. Az. Time Alt. Az. Time Alt. Az.
26 Jan -0.8 19:28:45 10° SW 19:28:56 11° SW 19:28:56 11° SW visible
27 Jan -2.1 18:36:52 10° SSW 18:38:56 21° SSE 18:38:56 21° SSE visible
28 Jan -1.7 17:45:23 10° S 17:47:19 15° SE 17:48:51 12° ESE visible
28 Jan -1.6 19:20:05 10° WSW 19:21:31 23° SW 19:21:31 23° SW visible
